Location: Unspecified
(64.9000°N, 0.0000°E)
Time: 01:05:51
(UTC+00:00)

Transit 2A Rocket - Pass Details

Date: 23 June 2019
Orbit: 593 x 910 km, 66.7° (Epoch: 14 October)

Event Time Altitude Azimuth Distance (km) Brightness Sun altitude
Rises 18:23:09 0° 306° (NW) 3,391 9.6 18.9°
Reaches altitude 10° 18:26:00 10° 295° (WNW) 2,402 9.7 18.6°
Maximum altitude 18:30:33 27° 239° (WSW) 1,438 7.3 18.2°
Drops below altitude 10° 18:34:46 10° 183° (S) 2,213 7.3 17.8°
Sets 18:37:18 0° 171° (S) 3,075 7.9 17.5°
